Hourly Weather Roundup
Issued by NWS Central Illinois

Home | Current Version | Previous Version | Text Only | Print | Product List | Glossary On
Versions: 1 2 3 4 5 6 7 8 9 10 11 12 13 14 15 16 17 18 19 20 21 22 23 24 25 26 27 28 29 30 31 32 33 34 35 36 37 38 39 40 41 42 43 44 45 46 47 48 49 50
000
NZUS43 KILX 302010
HWRILX

AREA WEATHER ROUNDUP
NATIONAL WEATHER SERVICE, LINCOLN IL
300 PM CDT FRI SEP 30 2016


CITY           SKY/WX    TMP DP  RH WIND       PRES   REMARKS
BLOOMINGTON    LGT RAIN  63  61  93 NE13      30.06S
CHAMPAIGN      LGT RAIN  65  59  81 NE14      30.03R
DANVILLE       CLOUDY    64  61  88 NE7       29.98F
DECATUR        LGT RAIN  67  60  78 N13       30.03F
EFFINGHAM      LGT RAIN  67  63  84 NW10      30.02F
FLORA          LGT RAIN  67  62  84 N3G9      29.99F
GALESBURG      CLOUDY    64  57  78 N9        30.11F
JACKSONVILLE   CLOUDY    64  60  88 N8        30.08F
LACON          CLOUDY    67  60  79 N7        30.07S
LAWRENCEVILLE  CLOUDY    68  55  63 CALM      29.98F
LITCHFIELD     RAIN      63  59  87 N7        30.05F
$$


CITY           SKY/WX    TMP DP  RH WIND       PRES   REMARKS
LINCOLN        CLOUDY    68  63  84 N8        30.04F
MACOMB         CLOUDY    66  58  74 NE12      30.13S
MATTOON        LGT RAIN  64  60  87 N13       30.00F
MT CARMEL AP   MOSUNNY   70  56  61 NW6       29.98F
OLNEY-NOBLE AP CLOUDY    68  59  73 NW7       29.99F
PARIS          MOSUNNY   66  58  75 NE3       30.00S
PEORIA         CLOUDY    64  63  96 N6        30.08F
PONTIAC        CLOUDY    66  63  88 NE10      30.06F
RANTOUL        CLOUDY    67  62  83 NE8       30.01F
ROBINSON       PTSUNNY   70  56  61 NW5       29.98F
SPRINGFIELD    CLOUDY    66  62  87 N12       30.06F FOG
TAYLORVILLE    CLOUDY    64  61  90 NW9       30.04F
$$

...REGIONAL REPORTS...


CITY           SKY/WX    TMP DP  RH WIND       PRES   REMARKS
CHICAGO O`HARE CLOUDY    64  59  83 NE16G23   30.09S
KANKAKEE       CLOUDY    65  60  82 N7        30.05F
MOLINE         CLOUDY    67  57  70 N9        30.12F
MOUNT STERLING CLOUDY    64  57  79 N9        30.10F
MOUNT VERNON   CLOUDY    66  57  72 W3        30.02F
PITTSFIELD     CLOUDY    65  58  77 N9        30.11S
QUINCY         CLOUDY    64  59  83 NE9       30.11F
ROCKFORD       CLOUDY    66  57  72 NE17      30.14R
$$


CITY           SKY/WX    TMP DP  RH WIND       PRES   REMARKS
BURLINGTON     PTSUNNY   66  59  78 N13       30.12F
CEDAR RAPIDS   CLOUDY    63  58  83 NE7       30.17F
DES MOINES     CLOUDY    64  54  69 N7        30.20F
KIRKSVILLE     CLOUDY    64  54  69 N9        30.16F
OTTUMWA        CLOUDY    65  54  67 N13       30.16F
ST LOUIS       NOT AVBL
$$


CITY           SKY/WX    TMP DP  RH WIND       PRES   REMARKS
TERRE HAUTE    CLOUDY    64  57  78 SE16G22   29.98S
EVANSVILLE     MOSUNNY   72  53  51 N8        29.98F
INDIANAPOLIS   PTSUNNY   67  56  67 CALM      29.97F
LAFAYETTE      CLOUDY    64  59  83 NE7       30.00S
MADISON        DRIZZLE   62  57  83 NE8       30.17F
MILWAUKEE      CLOUDY    64  59  83 NE14      30.14F
$$





USA.gov is the U.S. government's official web portal to all federal, state and local government web resources and services.